CW0925 Weather Reports


Display with metric or nautical units.
time (UTC)temp
F
wind
direction
speed
MPH
gust
MPH
rain 1hr
in
rain 24hr
in
rain mn
in
humidity
%
barometer
mb
20260510201339 87 255 8.0 12.0 0.00 0.00 0.00 83 1017.0
20260510200344 87 258 7.0 11.0 0.00 0.00 0.00 83 1017.1
20260510195330 87 247 7.0 14.0 0.00 0.00 0.00 83 1017.1
20260510194324 87 213 6.0 11.0 0.00 0.00 0.00 84 1017.2
20260510193319 87 288 5.0 12.0 0.00 0.00 0.00 83 1017.2
20260510192320 87 277 6.0 13.0 0.00 0.00 0.00 84 1017.3
20260510191335 87 272 7.0 12.0 0.00 0.00 0.00 84 1017.3
20260510190342 86 271 8.0 13.0 0.00 0.00 0.00 83 1017.4
20260510185325 86 284 7.0 13.0 0.00 0.00 0.00 84 1017.6
20260510184345 87 247 6.0 11.0 0.00 0.00 0.00 83 1017.7
20260510183320 87 207 5.0 11.0 0.00 0.00 0.00 83 1017.7
20260510182337 87 247 7.0 13.0 0.00 0.00 0.00 82 1017.9
20260510181336 88 299 6.0 12.0 0.00 0.00 0.00 81 1017.9
20260510180402 87 286 8.0 13.0 0.00 0.00 0.00 82 1018.0
20260510175324 87 267 7.0 13.0 0.00 0.00 0.00 83 1018.2
20260510174319 87 270 5.0 12.0 0.00 0.00 0.00 83 1018.2
20260510173320 87 265 7.0 15.0 0.00 0.00 0.00 83 1018.2
20260510172356 87 276 8.0 12.0 0.00 0.00 0.00 84 1018.4
20260510171330 87 255 8.0 13.0 0.00 0.00 0.00 83 1018.4
20260510170336 87 303 5.0 15.0 0.00 0.00 0.00 84 1018.6
20260510165322 87 268 6.0 13.0 0.00 0.00 0.00 84 1018.6
20260510164318 87 253 6.0 12.0 0.00 0.00 0.00 84 1018.6
20260510163352 86 257 9.0 15.0 0.00 0.00 0.00 85 1018.7
20260510162347 86 290 7.0 14.0 0.00 0.00 0.00 84 1018.6
20260510161326 86 268 8.0 14.0 0.00 0.00 0.00 86 1018.6
20260510160332 86 274 6.0 14.0 0.00 0.00 0.00 87 1018.6
20260510155335 86 288 8.0 15.0 0.00 0.00 0.00 85 1018.6
20260510154335 86 264 7.0 16.0 0.00 0.00 0.00 86 1018.5
20260510153330 85 270 10.0 18.0 0.00 0.00 0.00 86 1018.1
20260510152327 85 259 12.0 19.0 0.00 0.00 0.00 88 1018.1
20260510151341 85 263 11.0 16.0 0.00 0.00 0.00 87 1018.1
20260510150331 86 247 8.0 15.0 0.00 0.00 0.00 87 1018.2
20260510145354 85 265 9.0 14.0 0.00 0.00 0.00 87 1017.9
20260510144328 86 270 9.0 15.0 0.00 0.00 0.00 87 1017.9
20260510143327 85 241 10.0 16.0 0.00 0.00 0.00 86 1018.0
20260510142325 85 251 8.0 13.0 0.00 0.00 0.00 87 1018.0
20260510141340 85 250 9.0 13.0 0.00 0.00 0.00 86 1018.1
20260510140405 85 265 7.0 11.0 0.00 0.00 0.00 86 1018.0
20260510135331 85 266 7.0 11.0 0.00 0.00 0.00 85 1017.9
20260510134324 85 280 4.0 12.0 0.00 0.00 0.00 86 1017.8
20260510133319 85 272 8.0 12.0 0.00 0.00 0.00 85 1017.7
20260510132335 85 270 6.0 12.0 0.00 0.00 0.00 86 1017.7
20260510131334 85 255 7.0 13.0 0.00 0.00 0.00 85 1017.7
20260510130401 85 252 7.0 12.0 0.00 0.00 0.00 85 1017.8
20260510125322 84 243 7.0 12.0 0.00 0.00 0.00 86 1017.8
20260510124317 84 270 7.0 13.0 0.00 0.00 0.00 88 1017.7
20260510123317 83 263 9.0 14.0 0.00 0.00 0.00 88 1017.4
20260510122335 84 239 8.0 15.0 0.00 0.00 0.00 89 1017.2
20260510121330 84 263 7.0 15.0 0.00 0.00 0.00 88 1017.0
20260510120401 83 270 10.0 16.0 0.00 0.00 0.00 88 1016.7
20260510115323 83 243 9.0 16.0 0.00 0.00 0.00 88 1016.6
20260510114318 83 241 10.0 15.0 0.00 0.00 0.00 88 1016.5
20260510113334 83 270 10.0 14.0 0.00 0.00 0.00 88 1016.4
20260510112335 83 336 10.0 16.0 0.00 0.00 0.00 89 1016.2
20260510111330 82 278 10.0 16.0 0.00 0.00 0.00 90 1016.1
20260510110337 82 301 10.0 15.0 0.00 0.00 0.00 90 1015.9
20260510105323 82 265 10.0 16.0 0.00 0.00 0.00 89 1015.9
20260510104318 82 265 10.0 15.0 0.00 0.00 0.00 89 1015.9
20260510103335 82 268 8.0 16.0 0.00 0.00 0.00 90 1016.0
20260510102331 82 254 7.0 14.0 0.00 0.00 0.00 89 1015.9
20260510101330 82 268 8.0 14.0 0.00 0.00 0.00 89 1015.7
20260510100337 82 289 7.0 14.0 0.00 0.00 0.00 90 1015.7
20260510095340 82 279 7.0 12.0 0.00 0.00 0.00 90 1015.8
20260510094317 82 246 9.0 15.0 0.00 0.00 0.00 89 1015.8
20260510093334 82 268 5.0 11.0 0.00 0.00 0.00 89 1015.6
20260510092331 82 244 7.0 13.0 0.00 0.00 0.00 89 1015.6
20260510091326 82 274 6.0 12.0 0.00 0.00 0.00 89 1015.7
20260510090337 82 255 7.0 11.0 0.00 0.00 0.00 89 1015.5
20260510085319 82 267 7.0 13.0 0.00 0.00 0.00 88 1015.5
20260510084334 82 245 7.0 11.0 0.00 0.00 0.00 88 1015.5
20260510083334 82 222 6.0 10.0 0.00 0.00 0.00 88 1015.6
20260510082330 82 274 4.0 12.0 0.00 0.00 0.00 89 1015.6
20260510081325 82 286 5.0 12.0 0.00 0.00 0.00 89 1015.7
20260510080350 82 288 4.0 9.0 0.00 0.00 0.00 89 1015.6
20260510075338 82 261 5.0 12.0 0.00 0.00 0.00 89 1015.7
20260510074332 82 234 6.0 12.0 0.00 0.00 0.00 89 1015.8
20260510073347 82 265 8.0 15.0 0.00 0.00 0.00 88 1015.7
20260510072323 82 255 6.0 12.0 0.00 0.00 0.00 89 1015.9
20260510071322 82 256 6.0 12.0 0.00 0.00 0.00 88 1016.0
20260510070349 82 302 8.0 15.0 0.00 0.00 0.00 88 1016.0
20260510065330 82 275 8.0 13.0 0.00 0.00 0.00 87 1016.1
20260510064329 82 259 8.0 14.0 0.00 0.00 0.00 88 1016.1
20260510063345 82 256 7.0 15.0 0.00 0.00 0.00 88 1016.2
20260510062340 82 265 9.0 16.0 0.00 0.00 0.00 87 1016.2
20260510061354 82 270 7.0 14.0 0.00 0.00 0.00 86 1016.3
20260510060343 83 260 9.0 15.0 0.00 0.00 0.00 86 1016.3
20260510055325 83 275 7.0 13.0 0.00 0.00 0.00 85 1016.4
20260510054320 83 253 6.0 12.0 0.00 0.00 0.00 86 1016.4
20260510053335 83 307 6.0 12.0 0.00 0.00 0.00 85 1016.6
20260510052336 83 263 7.0 11.0 0.00 0.00 0.00 85 1016.6
20260510051332 83 273 6.0 11.0 0.00 0.00 0.00 85 1016.7
20260510050339 83 261 5.0 11.0 0.00 0.00 0.00 85 1016.7
20260510045326 83 257 6.0 11.0 0.00 0.00 0.00 85 1016.8
20260510044321 83 209 4.0 11.0 0.00 0.00 0.00 85 1016.7
20260510043317 83 238 7.0 11.0 0.00 0.00 0.00 85 1016.8
20260510042318 83 232 5.0 10.0 0.00 0.00 0.00 84 1016.8
20260510041353 83 256 5.0 11.0 0.00 0.00 0.00 85 1017.0
20260510040338 83 274 6.0 11.0 0.00 0.00 0.00 86 1017.0
20260510035321 83 241 5.0 10.0 0.00 0.00 0.00 86 1016.9
20260510034318 83 247 7.0 11.0 0.00 0.00 0.00 86 1016.9
20260510033334 83 253 5.0 10.0 0.00 0.00 0.00 87 1016.8
20260510032331 83 236 5.0 13.0 0.00 0.00 0.00 87 1016.6
20260510031325 83 224 5.0 10.0 0.00 0.00 0.00 87 1016.6
20260510030336 83 258 5.0 9.0 0.00 0.00 0.00 87 1016.5
20260510025318 83 253 5.0 10.0 0.00 0.00 0.00 88 1016.5
20260510024334 83 255 5.0 10.0 0.00 0.00 0.00 88 1016.4
20260510023333 83 256 5.0 10.0 0.00 0.00 0.00 87 1016.3
20260510022331 83 222 5.0 10.0 0.00 0.00 0.00 86 1016.2
20260510021326 83 252 4.0 9.0 0.00 0.00 0.00 86 1016.2
20260510020333 83 241 6.0 12.0 0.00 0.00 0.00 85 1016.0
20260510015319 83 252 5.0 11.0 0.00 0.00 0.00 85 1015.8
20260510014335 83 243 8.0 11.0 0.00 0.00 0.00 84 1015.6
20260510013330 83 253 5.0 12.0 0.00 0.00 0.00 84 1015.5
20260510012331 83 238 7.0 12.0 0.00 0.00 0.00 84 1015.3
20260510011326 84 261 8.0 14.0 0.00 0.00 0.00 83 1015.1
20260510010333 84 265 8.0 14.0 0.00 0.00 0.00 83 1015.0
20260510005320 84 235 8.0 14.0 0.00 0.00 0.00 82 1014.9
20260510004335 84 264 8.0 12.0 0.00 0.00 0.00 82 1014.8
20260510003331 83 250 8.0 13.0 0.00 0.00 0.00 82 1014.5
20260510002328 83 261 10.0 17.0 0.00 0.00 0.00 81 1014.3
20260510001346 84 254 9.0 16.0 0.00 0.00 0.00 84 1014.2
20260510000333 84 251 10.0 13.0 0.00 0.00 0.00 84 1014.0
20260509235335 84 248 11.0 17.0 0.00 0.00 0.00 83 1013.9
20260509234350 84 261 8.0 16.0 0.00 0.00 0.00 83 1013.9
20260509233349 84 253 10.0 17.0 0.00 0.00 0.00 82 1013.8
20260509232324 84 270 8.0 16.0 0.00 0.00 0.00 83 1013.8
20260509231319 84 261 11.0 16.0 0.00 0.00 0.00 83 1013.7
20260509230345 84 232 11.0 15.0 0.00 0.00 0.00 83 1013.8
20260509225351 84 267 11.0 18.0 0.00 0.00 0.00 82 1013.6
20260509224325 84 254 8.0 15.0 0.00 0.00 0.00 82 1013.8
20260509223321 85 253 9.0 16.0 0.00 0.00 0.00 80 1013.8
20260509222341 85 247 6.0 10.0 0.00 0.00 0.00 78 1014.1
20260509221335 86 225 6.0 12.0 0.00 0.00 0.00 80 1014.1
20260509220402 86 251 5.0 11.0 0.00 0.00 0.00 76 1014.2
20260509215324 86 255 4.0 10.0 0.00 0.00 0.00 78 1014.1
20260509214323 86 265 7.0 11.0 0.00 0.00 0.00 77 1014.1
20260509213319 86 257 7.0 11.0 0.00 0.00 0.00 80 1014.2
20260509212335 87 296 6.0 10.0 0.00 0.00 0.00 78 1014.2
20260509211350 87 303 6.0 12.0 0.00 0.00 0.00 78 1014.3
20260509210340 87 278 6.0 11.0 0.00 0.00 0.00 77 1014.3
20260509205322 87 257 2.0 9.0 0.00 0.00 0.00 79 1014.4
20260509204318 86 340 5.0 11.0 0.00 0.00 0.00 80 1014.6
20260509203318 87 247 5.0 11.0 0.00 0.00 0.00 80 1014.6
20260509202333 87 297 5.0 12.0 0.00 0.00 0.00 78 1014.8